Location: De Har
(53.3413°N, 6.6858°E)
Time: 08:08:40
(UTC+00:00)

Cosmos 1726 Rocket - Pass Details

Date: 22 April 2026
Orbit: 553 x 662 km, 82.5° (Epoch: 15 May)

Event Time Altitude Azimuth Distance (km) Brightness Sun altitude
Exits shadow 00:07:16 37° 96° (E) 942 4.4 -24.1°
Maximum altitude 00:07:23 37° 92° (E) 940 4.5 -24.1°
Drops below altitude 10° 00:11:16 10° 25° (NNE) 1,914 7.1 -24.0°
Sets 00:13:33 0° 18° (NNE) 2,802 8.3 -23.9°
